Wind_Speed
21 21 20 19 19 19 17 16 14 12 11 10 8 7 6 5 4 4 3 3 3 3 3 3 3 4 5 5 6 8 9 11 12 14 15 16 17 18 19 19 19 19 19 18
20 19 19 19 18 17 17 13 12 11 10 8 6 6 5 4 4 3 3 3 3 3 3 3 4 5 5 5 7 8 9 11 12 14 15 16 17 18 19 19 19 19 19 19
18 19 19 18 16 15 13 11 10 9 9 8 6 5 4 4 4 2 2 2 2 3 3 3 4 5 5 6 7 8 9 11 12 13 15 16 17 18 18 19 19 19 19 19
16 17 16 15 13 12 12 10 8 7 8 6 6 4 5 4 3 2 2 2 2 2 3 4 5 5 5 6 7 8 9 11 12 13 15 16 17 18 18 19 19 19 19 19
14 14 15 14 12 12 11 9 7 6 7 5 5 4 3 3 3 2 2 2 2 3 4 4 4 5 6 6 7 8 9 11 12 13 14 15 16 17 18 18 19 19 19 19
14 14 14 13 11 11 10 10 8 6 6 4 3 3 3 2 2 1 1 1 2 3 4 4 5 5 6 6 7 8 9 10 11 12 14 15 16 17 17 18 18 19 19 18
16 15 14 12 11 11 10 10 7 6 5 3 3 3 2 2 2 1 1 2 2 3 4 4 5 6 6 7 7 8 9 10 11 12 13 15 15 16 17 17 18 18 18 19
16 15 13 12 11 10 9 8 7 6 4 4 3 2 1 1 1 2 1 2 3 3 4 5 6 6 7 7 7 8 9 10 11 12 13 15 15 16 16 16 17 17 18 18
14 13 12 11 10 9 8 6 6 5 4 4 3 1 0 1 3 3 3 3 4 5 6 6 7 7 7 7 7 8 9 10 11 12 13 14 15 15 16 16 16 17 17 17
12 12 11 10 9 8 7 6 5 5 5 5 3 2 2 3 4 4 4 4 5 6 7 7 8 8 8 8 8 8 9 10 11 12 13 14 14 15 15 15 16 16 17 17
9 9 9 9 7 6 6 5 5 5 5 5 4 3 3 4 5 5 5 6 7 7 8 8 8 9 9 9 9 9 9 10 11 11 13 14 14 14 14 14 15 15 16 16
5 5 6 6 5 5 5 4 5 5 5 5 5 4 5 6 6 6 7 7 8 9 9 9 9 10 10 10 10 10 10 11 11 12 13 14 14 14 14 14 14 14 15 15
4 4 4 3 3 3 4 4 5 6 6 7 7 6 7 8 8 8 8 8 9 9 10 10 10 10 11 11 11 11 12 12 12 12 13 13 14 14 14 13 13 13 14 14
3 3 3 3 3 3 4 4 5 6 7 8 8 8 9 10 10 10 10 10 10 10 10 11 12 12 12 12 12 12 13 13 13 13 13 13 14 14 14 13 13 13 13 13
3 3 4 4 5 4 5 6 6 7 8 9 9 10 10 11 11 12 12 12 12 12 12 13 13 13 13 13 13 14 14 14 14 14 14 14 14 14 14 13 12 12 12 12
4 5 5 6 6 5 6 7 8 9 9 10 11 10 11 12 13 14 14 14 14 14 14 14 15 15 15 15 15 15 15 15 15 15 15 14 14 14 14 13 13 12 12 12
5 6 6 7 7 7 7 8 9 10 11 12 12 13 13 14 15 15 16 16 16 16 16 17 17 17 17 17 17 17 17 17 17 17 17 16 15 15 14 14 13 13 13 12
6 7 8 8 8 8 8 10 10 12 12 13 14 14 15 15 16 16 17 17 18 18 18 18 19 19 19 19 19 19 19 19 19 18 18 18 17 17 16 15 15 14 14 13
8 9 10 10 10 10 11 12 13 14 14 14 15 16 16 16 17 18 19 19 20 20 20 21 21 22 22 22 21 21 21 21 20 20 20 20 19 19 18 17 16 15 15 15
11 11 12 13 13 13 13 13 15 16 16 16 17 18 18 19 20 20 21 22 23 23 23 23 23 23 24 24 24 23 23 23 22 22 22 22 22 21 20 19 18 18 17 16
13 14 15 15 16 17 16 17 17 18 18 19 20 21 21 22 22 23 23 24 25 25 26 26 26 26 26 26 26 26 25 25 25 25 24 24 24 24 23 22 21 20 20 19
16 17 18 19 20 20 21 21 22 22 23 23 24 24 25 25 26 26 26 26 27 28 28 28 28 28 28 28 28 28 28 28 27 27 27 26 26 26 25 25 24 23 22 21
20 20 21 22 23 24 24 25 25 26 27 27 28 29 29 29 30 30 30 30 30 31 30 30 30 31 30 31 31 31 30 31 30 29 29 28 28 28 28 27 26 26 25 24
23 24 25 26 26 27 28 28 29 30 30 31 31 32 32 33 33 33 34 34 33 33 33 33 32 32 32 32 33 33 33 33 33 32 31 31 31 30 30 29 29 28 28 27
26 28 29 30 30 31 31 31 32 32 33 34 34 35 36 36 37 37 37 37 36 36 36 35 35 35 35 35 35 35 35 35 34 34 34 33 33 32 32 32 31 30 30 29
30 32 32 32 34 35 35 35 35 36 36 37 38 39 39 40 40 40 40 39 39 39 39 39 39 39 38 38 37 37 37 37 37 36 36 36 35 35 34 34 33 33 32 32
Wind_Direction
182 186 189 189 192 198 203 208 214 215 211 211 214 223 231 233 242 252 249 243 243 258 273 281 313 325 332 335 339 341 346 346 345 346 347 347 348 348 348 348 347 347 346 344
172 175 178 184 189 195 198 202 206 209 208 204 204 209 213 211 222 233 238 234 239 267 276 280 306 318 325 330 334 337 340 341 342 344 347 347 347 347 348 348 348 347 346 346
165 170 174 179 182 181 184 189 195 198 197 202 198 192 198 201 205 205 215 231 249 255 261 283 301 309 315 322 327 331 336 339 340 342 345 346 346 347 349 350 349 347 347 347
162 168 168 169 174 181 182 180 171 170 174 177 183 184 198 187 186 183 204 223 241 246 269 284 290 301 308 312 319 326 331 334 337 341 343 345 346 348 350 350 350 349 348 348
151 154 158 160 162 165 168 164 162 160 157 165 172 174 185 172 158 164 176 222 243 256 262 274 288 297 305 308 315 322 327 331 336 340 342 344 346 347 349 351 351 351 351 350
135 139 145 150 149 151 150 155 161 161 157 157 168 165 152 153 141 143 185 243 262 270 278 276 287 294 301 306 312 320 326 330 335 339 341 343 345 346 348 350 352 353 353 353
122 126 131 136 141 144 148 155 155 154 158 163 156 153 132 121 118 120 245 279 289 278 282 282 286 296 299 302 309 317 323 329 333 337 339 342 343 346 348 350 352 354 356 356
122 123 127 131 131 141 148 155 158 161 167 158 150 149 128 53 24 356 312 291 288 284 283 286 288 292 295 301 307 313 321 327 331 335 338 340 341 344 347 350 352 355 356 358
122 124 126 130 134 143 150 155 160 162 168 178 185 178 348 340 334 328 319 303 302 296 290 289 286 286 290 296 303 310 318 323 328 334 337 339 340 343 346 349 352 355 357 359
122 125 131 137 144 151 158 168 171 170 172 181 186 224 277 298 304 309 310 301 297 297 294 291 287 287 289 292 297 304 311 318 325 331 335 337 339 341 343 347 351 354 356 360
122 131 137 142 149 161 169 180 193 199 203 213 220 246 279 286 291 301 307 304 298 297 295 292 289 288 289 289 292 297 303 311 320 326 332 336 338 339 341 344 348 351 354 357
132 140 145 149 157 169 179 190 208 224 233 246 254 255 273 285 293 297 300 301 299 297 295 291 288 284 283 285 289 292 297 304 311 319 326 332 336 339 340 341 344 348 351 354
157 162 170 172 182 195 208 218 231 241 249 263 270 271 276 286 294 297 297 296 297 295 293 292 290 283 280 282 286 289 292 296 302 310 317 325 331 335 338 338 339 343 347 351
192 208 221 229 238 244 241 241 248 257 263 271 277 278 280 287 291 293 295 296 296 294 294 294 291 285 282 282 282 285 289 292 295 301 308 316 323 328 331 334 335 338 343 347
238 241 253 253 254 256 267 266 262 263 272 278 282 284 287 288 290 291 292 294 295 293 291 290 289 286 283 282 282 283 287 289 291 294 300 307 314 320 324 326 329 332 336 340
270 270 270 267 267 267 270 272 266 266 272 277 281 284 289 290 289 288 289 291 291 290 288 287 287 287 284 282 281 282 285 287 288 289 292 299 304 309 314 318 320 324 327 331
268 272 273 274 274 273 273 271 268 270 275 280 283 287 289 287 286 286 288 289 288 288 287 285 285 285 284 282 281 281 282 284 286 288 289 291 295 298 302 306 310 313 317 321
282 278 276 274 274 271 272 272 275 278 280 283 286 289 291 289 287 287 287 288 287 286 285 284 283 283 281 280 279 279 280 281 283 285 286 287 289 291 294 297 300 303 307 311
286 284 282 281 281 280 278 279 280 282 285 287 288 290 292 291 291 290 289 289 289 287 284 282 281 280 279 278 278 277 278 279 280 281 282 283 284 286 288 290 293 295 298 302
287 286 287 289 290 291 287 285 286 286 288 290 289 288 288 288 287 288 288 288 287 287 285 283 281 279 278 277 276 275 276 277 278 279 279 280 281 281 283 284 287 289 291 294
285 286 287 289 290 291 292 291 289 289 292 290 289 288 287 286 287 287 286 286 286 286 285 284 283 281 279 277 276 275 275 276 277 277 277 278 278 278 279 280 281 283 285 288
283 284 285 286 288 289 291 292 291 291 291 290 288 288 288 288 288 287 286 286 286 286 285 283 282 281 280 278 276 275 274 273 273 274 275 276 276 276 276 276 277 279 280 282
284 285 286 286 287 288 289 289 289 290 290 290 289 288 288 289 288 287 287 287 287 286 283 282 281 280 279 278 276 275 273 272 272 272 272 273 273 274 274 273 274 276 276 277
281 283 283 284 285 286 286 287 287 288 289 289 289 289 288 288 287 286 286 285 285 284 282 280 279 278 278 277 276 276 274 272 272 271 270 270 271 271 271 271 271 273 273 274
279 279 281 282 284 284 285 285 286 286 286 287 287 287 287 287 286 286 285 284 283 281 280 279 279 278 277 276 275 275 275 272 270 270 270 269 269 269 269 269 269 269 270 271
278 279 279 280 281 282 283 283 284 283 284 284 284 285 285 286 285 284 284 283 282 280 279 278 278 278 277 276 275 274 273 271 269 269 268 268 267 266 266 266 266 266 267 268
Height
5798 5805 5809 5814 5819 5822 5826 5829 5832 5835 5837 5839 5841 5842 5843 5843 5844 5844 5845 5845 5846 5846 5846 5846 5845 5845 5844 5843 5842 5841 5839 5837 5835 5833 5830 5827 5824 5820 5816 5813 5809 5805 5801 5798
5800 5805 5810 5813 5817 5821 5825 5829 5831 5834 5836 5838 5839 5840 5841 5842 5842 5843 5843 5844 5845 5845 5845 5844 5844 5843 5843 5842 5841 5840 5838 5836 5834 5831 5829 5825 5822 5819 5815 5811 5807 5804 5800 5796
5801 5806 5809 5814 5817 5821 5825 5828 5831 5832 5834 5836 5838 5839 5840 5840 5841 5841 5842 5843 5843 5843 5843 5843 5843 5842 5841 5841 5840 5838 5837 5835 5833 5830 5827 5824 5821 5817 5814 5810 5806 5802 5798 5795
5803 5807 5811 5815 5818 5821 5825 5828 5830 5831 5833 5835 5837 5839 5839 5839 5840 5840 5841 5841 5842 5842 5842 5842 5841 5841 5840 5840 5838 5837 5835 5833 5831 5828 5826 5823 5820 5816 5812 5809 5805 5801 5797 5793
5806 5809 5813 5816 5820 5822 5825 5828 5830 5831 5833 5835 5836 5837 5839 5838 5838 5839 5839 5840 5840 5841 5840 5840 5840 5839 5839 5838 5837 5835 5834 5832 5830 5827 5824 5821 5818 5815 5811 5808 5804 5800 5796 5792
5808 5812 5815 5818 5821 5824 5826 5828 5830 5832 5833 5834 5835 5836 5838 5837 5837 5837 5838 5838 5838 5838 5838 5838 5838 5838 5837 5836 5835 5834 5832 5830 5828 5826 5823 5820 5817 5814 5810 5806 5803 5799 5795 5791
5811 5814 5817 5820 5822 5824 5827 5829 5831 5832 5833 5834 5834 5835 5836 5836 5836 5836 5837 5837 5837 5837 5837 5837 5836 5836 5835 5835 5834 5832 5831 5829 5827 5824 5822 5819 5816 5813 5809 5805 5802 5798 5794 5790
5814 5817 5819 5821 5823 5825 5827 5830 5832 5833 5833 5833 5833 5833 5835 5834 5835 5835 5835 5835 5835 5835 5835 5835 5834 5834 5834 5833 5832 5831 5829 5827 5825 5823 5820 5818 5815 5811 5808 5804 5801 5797 5793 5789
5817 5819 5820 5822 5824 5826 5828 5829 5831 5832 5832 5832 5832 5833 5833 5833 5833 5834 5834 5834 5834 5834 5834 5833 5833 5832 5832 5831 5830 5829 5827 5826 5824 5821 5819 5816 5813 5810 5807 5803 5800 5796 5793 5789
5819 5820 5822 5823 5825 5827 5828 5829 5830 5831 5831 5831 5832 5832 5833 5833 5832 5832 5832 5833 5833 5832 5832 5831 5831 5830 5829 5829 5828 5827 5825 5824 5822 5820 5817 5815 5812 5809 5805 5802 5799 5796 5792 5789
5821 5822 5823 5824 5825 5826 5828 5829 5829 5829 5830 5831 5831 5834 5832 5831 5831 5831 5831 5831 5831 5830 5830 5829 5828 5828 5827 5827 5826 5825 5824 5822 5820 5818 5816 5813 5810 5807 5804 5801 5798 5795 5792 5788
5822 5823 5823 5824 5825 5825 5826 5827 5828 5829 5829 5829 5829 5833 5830 5829 5829 5829 5829 5829 5828 5828 5827 5826 5826 5825 5825 5824 5823 5822 5821 5820 5818 5816 5814 5811 5808 5805 5803 5800 5797 5794 5791 5788
5822 5823 5824 5824 5826 5826 5825 5826 5826 5827 5827 5827 5827 5831 5828 5827 5827 5827 5827 5826 5826 5825 5824 5823 5823 5822 5822 5821 5820 5819 5818 5817 5815 5814 5812 5809 5807 5804 5801 5798 5796 5793 5790 5787
5821 5822 5824 5825 5824 5824 5824 5824 5824 5825 5825 5825 5825 5826 5826 5825 5824 5824 5824 5823 5822 5822 5821 5820 5819 5819 5818 5818 5817 5816 5815 5814 5812 5811 5809 5807 5805 5802 5799 5797 5794 5792 5789 5786
5821 5821 5821 5822 5822 5822 5822 5822 5822 5822 5822 5823 5823 5822 5823 5822 5821 5821 5820 5820 5819 5819 5818 5817 5816 5815 5815 5814 5814 5813 5812 5810 5809 5808 5806 5804 5802 5800 5798 5795 5793 5790 5788 5785
5819 5820 5820 5820 5820 5820 5820 5820 5820 5820 5819 5819 5819 5819 5819 5818 5818 5817 5817 5816 5816 5815 5814 5813 5812 5812 5811 5810 5810 5809 5808 5807 5805 5804 5803 5801 5799 5797 5795 5793 5791 5788 5786 5784
5817 5818 5818 5818 5818 5818 5818 5818 5817 5817 5816 5816 5816 5816 5815 5814 5813 5813 5813 5812 5811 5811 5810 5809 5808 5807 5806 5806 5805 5804 5803 5802 5801 5800 5798 5797 5796 5794 5792 5790 5788 5786 5784 5782
5815 5815 5815 5815 5816 5815 5817 5814 5814 5813 5813 5812 5812 5811 5811 5810 5809 5808 5808 5807 5806 5806 5805 5804 5803 5802 5801 5801 5800 5799 5798 5797 5796 5795 5794 5792 5791 5790 5788 5786 5785 5783 5781 5779
5812 5812 5812 5811 5811 5811 5812 5811 5809 5809 5809 5808 5807 5807 5806 5805 5804 5803 5802 5801 5801 5800 5799 5798 5797 5796 5795 5795 5794 5793 5792 5791 5791 5790 5789 5787 5786 5785 5783 5782 5780 5779 5777 5776
5809 5808 5808 5807 5806 5806 5808 5807 5805 5805 5804 5803 5802 5801 5801 5800 5799 5799 5797 5795 5794 5793 5792 5791 5791 5789 5788 5788 5787 5787 5786 5785 5784 5783 5782 5781 5780 5779 5778 5777 5775 5774 5773 5771
5805 5804 5803 5802 5801 5801 5801 5801 5800 5800 5800 5798 5796 5795 5794 5793 5793 5792 5790 5789 5787 5786 5785 5783 5783 5782 5781 5780 5779 5779 5778 5778 5777 5776 5775 5775 5774 5773 5772 5771 5770 5769 5767 5766
5799 5798 5798 5796 5796 5797 5795 5794 5794 5793 5791 5790 5789 5787 5786 5785 5784 5783 5782 5781 5779 5778 5776 5775 5774 5773 5772 5771 5771 5770 5770 5769 5769 5768 5767 5767 5766 5765 5764 5764 5763 5762 5761 5760
5793 5793 5791 5791 5791 5789 5788 5787 5786 5784 5783 5782 5780 5779 5778 5776 5775 5773 5772 5771 5770 5768 5767 5766 5765 5764 5763 5762 5761 5761 5760 5760 5759 5759 5759 5758 5757 5757 5756 5756 5755 5755 5754 5753
5786 5785 5784 5782 5782 5780 5779 5778 5777 5775 5774 5772 5771 5769 5768 5767 5765 5763 5762 5761 5759 5758 5757 5756 5755 5754 5753 5752 5751 5750 5750 5750 5749 5749 5749 5749 5748 5748 5747 5747 5746 5746 5746 5745
5778 5776 5775 5774 5773 5771 5770 5768 5767 5765 5764 5762 5760 5758 5757 5755 5754 5752 5751 5749 5748 5746 5746 5745 5744 5743 5742 5741 5740 5739 5738 5738 5738 5738 5738 5738 5738 5737 5737 5737 5737 5737 5737 5736
5768 5766 5765 5764 5763 5760 5759 5757 5756 5754 5753 5751 5749 5747 5745 5743 5741 5740 5738 5737 5735 5734 5733 5732 5732 5731 5730 5729 5729 5727 5726 5726 5726 5726 5726 5726 5726 5726 5726 5726 5727 5726 5727 5727